Time,TemperatureF,DewpointF,PressureIn,WindDirection,WindDirectionDegrees,WindSpeedMPH,WindSpeedGustMPH,Humidity,HourlyPrecipIn,Conditions,Clouds,dailyrainin,SoftwareType,DateUTC
2013-07-18 00:03:00,78.1,73.6,30.17,West,277,0.0,0.0,86,0.00,,,0.00,Wunderground v.1.15,2013-07-18 05:03:00,
2013-07-18 00:08:00,78.0,73.5,30.17,West,277,0.0,0.0,86,0.00,,,0.00,Wunderground v.1.15,2013-07-18 05:08:00,
2013-07-18 00:14:00,77.9,73.7,30.17,West,277,0.0,0.0,87,0.00,,,0.00,Wunderground v.1.15,2013-07-18 05:14:00,
2013-07-18 00:20:00,77.8,73.6,30.18,West,277,0.0,0.0,87,0.00,,,0.00,Wunderground v.1.15,2013-07-18 05:20:00,
2013-07-18 00:34:00,77.6,73.8,30.17,West,277,0.0,0.0,88,0.00,,,0.00,Wunderground v.1.15,2013-07-18 05:34:00,
2013-07-18 00:39:00,77.2,73.4,30.17,West,277,0.0,0.0,88,0.00,,,0.00,Wunderground v.1.15,2013-07-18 05:39:00,
2013-07-18 00:45:00,77.0,73.5,30.17,West,277,0.0,0.0,89,0.00,,,0.00,Wunderground v.1.15,2013-07-18 05:45:00,
2013-07-18 00:50:00,76.7,73.2,30.18,West,277,0.0,0.0,89,0.00,,,0.00,Wunderground v.1.15,2013-07-18 05:50:00,
2013-07-18 00:55:00,76.6,73.1,30.17,West,277,0.0,0.0,89,0.00,,,0.00,Wunderground v.1.15,2013-07-18 05:55:00,
2013-07-18 01:02:00,76.8,73.3,30.17,West,277,0.0,0.0,89,0.00,,,0.00,Wunderground v.1.15,2013-07-18 06:02:00,
2013-07-18 01:08:00,77.0,73.2,30.17,West,277,0.0,0.0,88,0.00,,,0.00,Wunderground v.1.15,2013-07-18 06:08:00,
2013-07-18 01:13:00,77.3,73.1,30.17,West,277,0.0,1.0,87,0.00,,,0.00,Wunderground v.1.15,2013-07-18 06:13:00,
2013-07-18 01:19:00,77.6,73.4,30.17,West,277,0.0,5.0,87,0.00,,,0.00,Wunderground v.1.15,2013-07-18 06:19:00,
2013-07-18 01:24:00,77.7,73.2,30.17,West,277,1.0,2.0,86,0.00,,,0.00,Wunderground v.1.15,2013-07-18 06:24:00,
2013-07-18 01:30:00,77.9,73.4,30.17,West,277,1.0,1.0,86,0.00,,,0.00,Wunderground v.1.15,2013-07-18 06:30:00,
2013-07-18 01:35:00,78.0,73.5,30.17,West,277,1.0,4.0,86,0.00,,,0.00,Wunderground v.1.15,2013-07-18 06:35:00,
2013-07-18 01:41:00,78.2,73.3,30.16,West,277,2.0,2.0,85,0.00,,,0.00,Wunderground v.1.15,2013-07-18 06:41:00,
2013-07-18 01:46:00,78.3,73.4,30.16,West,277,2.0,5.0,85,0.00,,,0.00,Wunderground v.1.15,2013-07-18 06:46:00,
2013-07-18 01:52:00,78.4,73.5,30.16,West,277,2.0,2.0,85,0.00,,,0.00,Wunderground v.1.15,2013-07-18 06:52:00,
2013-07-18 01:57:00,78.2,73.3,30.16,West,277,2.0,2.0,85,0.00,,,0.00,Wunderground v.1.15,2013-07-18 06:57:00,
2013-07-18 02:03:00,77.9,73.4,30.16,West,277,1.0,3.0,86,0.00,,,0.00,Wunderground v.1.15,2013-07-18 07:03:00,
2013-07-18 02:08:00,77.6,73.1,30.16,West,277,2.0,3.0,86,0.00,,,0.00,Wunderground v.1.15,2013-07-18 07:08:00,
2013-07-18 02:14:00,77.4,73.2,30.16,West,277,2.0,4.0,87,0.00,,,0.00,Wunderground v.1.15,2013-07-18 07:14:00,
2013-07-18 02:19:00,77.3,73.1,30.15,West,277,2.0,4.0,87,0.00,,,0.00,Wunderground v.1.15,2013-07-18 07:19:00,
2013-07-18 02:25:00,77.2,73.0,30.16,West,277,1.0,5.0,87,0.00,,,0.00,Wunderground v.1.15,2013-07-18 07:25:00,
2013-07-18 02:30:00,77.0,72.8,30.16,West,277,2.0,2.0,87,0.00,,,0.00,Wunderground v.1.15,2013-07-18 07:30:00,
2013-07-18 02:36:00,76.8,73.0,30.15,West,277,2.0,3.0,88,0.00,,,0.00,Wunderground v.1.15,2013-07-18 07:36:00,
2013-07-18 02:41:00,76.8,73.0,30.15,West,277,3.0,5.0,88,0.00,,,0.00,Wunderground v.1.15,2013-07-18 07:41:00,
2013-07-18 02:47:00,76.9,72.7,30.15,West,277,3.0,5.0,87,0.00,,,0.00,Wunderground v.1.15,2013-07-18 07:47:00,
2013-07-18 02:52:00,76.9,72.7,30.15,West,277,3.0,3.0,87,0.00,,,0.00,Wunderground v.1.15,2013-07-18 07:52:00,
2013-07-18 02:58:00,77.0,72.8,30.15,West,277,2.0,5.0,87,0.00,,,0.00,Wunderground v.1.15,2013-07-18 07:58:00,
2013-07-18 03:03:00,77.2,72.7,30.15,West,277,3.0,4.0,86,0.00,,,0.00,Wunderground v.1.15,2013-07-18 08:03:00,
2013-07-18 03:08:00,77.1,72.6,30.15,West,277,3.0,5.0,86,0.00,,,0.00,Wunderground v.1.15,2013-07-18 08:08:00,
2013-07-18 03:14:00,77.1,72.6,30.15,West,277,2.0,3.0,86,0.00,,,0.00,Wunderground v.1.15,2013-07-18 08:14:00,
2013-07-18 03:20:00,76.7,72.5,30.15,West,277,2.0,2.0,87,0.00,,,0.00,Wunderground v.1.15,2013-07-18 08:20:00,
2013-07-18 03:25:00,76.4,72.6,30.15,West,277,2.0,3.0,88,0.00,,,0.00,Wunderground v.1.15,2013-07-18 08:25:00,
2013-07-18 03:31:00,76.1,72.3,30.15,West,277,2.0,2.0,88,0.00,,,0.00,Wunderground v.1.15,2013-07-18 08:31:00,
2013-07-18 03:36:00,76.1,72.3,30.15,West,277,2.0,3.0,88,0.00,,,0.00,Wunderground v.1.15,2013-07-18 08:36:00,
2013-07-18 03:42:00,76.1,72.3,30.14,West,277,2.0,2.0,88,0.00,,,0.00,Wunderground v.1.15,2013-07-18 08:42:00,
2013-07-18 03:47:00,76.1,72.3,30.14,West,277,2.0,5.0,88,0.00,,,0.00,Wunderground v.1.15,2013-07-18 08:47:00,
2013-07-18 03:53:00,76.5,72.3,30.14,West,277,3.0,5.0,87,0.00,,,0.00,Wunderground v.1.15,2013-07-18 08:53:00,
2013-07-18 03:58:00,76.6,72.4,30.14,West,277,4.0,5.0,87,0.00,,,0.00,Wunderground v.1.15,2013-07-18 08:58:00,
2013-07-18 04:04:00,76.6,72.4,30.13,West,277,4.0,4.0,87,0.00,,,0.00,Wunderground v.1.15,2013-07-18 09:04:00,
2013-07-18 04:10:00,76.5,72.3,30.13,West,277,2.0,2.0,87,0.00,,,0.00,Wunderground v.1.15,2013-07-18 09:10:00,
2013-07-18 04:16:00,76.4,72.2,30.13,West,277,2.0,3.0,87,0.00,,,0.00,Wunderground v.1.15,2013-07-18 09:16:00,
2013-07-18 04:22:00,76.2,72.0,30.13,West,277,2.0,2.0,87,0.00,,,0.00,Wunderground v.1.15,2013-07-18 09:22:00,
2013-07-18 04:27:00,76.1,71.9,30.13,West,277,2.0,4.0,87,0.00,,,0.00,Wunderground v.1.15,2013-07-18 09:27:00,
2013-07-18 04:33:00,76.1,71.9,30.13,West,277,2.0,2.0,87,0.00,,,0.00,Wunderground v.1.15,2013-07-18 09:33:00,
2013-07-18 04:38:00,75.9,71.8,30.12,West,277,1.0,2.0,87,0.00,,,0.00,Wunderground v.1.15,2013-07-18 09:38:00,
2013-07-18 04:44:00,75.7,71.9,30.13,West,277,0.0,2.0,88,0.00,,,0.00,Wunderground v.1.15,2013-07-18 09:44:00,
2013-07-18 04:49:00,75.6,71.8,30.12,West,277,0.0,2.0,88,0.00,,,0.00,Wunderground v.1.15,2013-07-18 09:49:00,
2013-07-18 04:55:00,75.4,71.6,30.13,West,277,0.0,2.0,88,0.00,,,0.00,Wunderground v.1.15,2013-07-18 09:55:00,
2013-07-18 05:00:00,75.5,71.7,30.13,West,277,1.0,1.0,88,0.00,,,0.00,Wunderground v.1.15,2013-07-18 10:00:00,
2013-07-18 05:06:00,75.4,71.6,30.12,West,277,1.0,1.0,88,0.00,,,0.00,Wunderground v.1.15,2013-07-18 10:06:00,
2013-07-18 05:12:00,75.4,71.6,30.13,West,277,0.0,0.0,88,0.00,,,0.00,Wunderground v.1.15,2013-07-18 10:12:00,
2013-07-18 05:17:00,75.4,71.6,30.13,West,277,0.0,0.0,88,0.00,,,0.00,Wunderground v.1.15,2013-07-18 10:17:00,
2013-07-18 05:23:00,75.3,71.5,30.12,West,277,0.0,0.0,88,0.00,,,0.00,Wunderground v.1.15,2013-07-18 10:23:00,
2013-07-18 05:28:00,74.9,71.4,30.12,West,277,0.0,0.0,89,0.00,,,0.00,Wunderground v.1.15,2013-07-18 10:28:00,
2013-07-18 05:34:00,74.6,71.1,30.13,West,277,0.0,0.0,89,0.00,,,0.00,Wunderground v.1.15,2013-07-18 10:34:00,
2013-07-18 05:39:00,74.7,71.2,30.13,West,277,0.0,0.0,89,0.00,,,0.00,Wunderground v.1.15,2013-07-18 10:39:00,
2013-07-18 05:45:00,74.8,71.3,30.13,West,277,0.0,0.0,89,0.00,,,0.00,Wunderground v.1.15,2013-07-18 10:45:00,
2013-07-18 05:50:00,74.7,71.2,30.13,West,277,0.0,0.0,89,0.00,,,0.00,Wunderground v.1.15,2013-07-18 10:50:00,
2013-07-18 05:56:00,74.6,71.1,30.13,West,277,0.0,1.0,89,0.00,,,0.00,Wunderground v.1.15,2013-07-18 10:56:00,
2013-07-18 06:01:00,74.5,71.0,30.13,West,277,0.0,0.0,89,0.00,,,0.00,Wunderground v.1.15,2013-07-18 11:01:00,
2013-07-18 06:07:00,74.3,71.2,30.13,West,277,0.0,0.0,90,0.00,,,0.00,Wunderground v.1.15,2013-07-18 11:07:00,
2013-07-18 06:12:00,74.1,71.0,30.13,West,277,0.0,0.0,90,0.00,,,0.00,Wunderground v.1.15,2013-07-18 11:12:00,
2013-07-18 06:18:00,74.0,70.9,30.13,West,277,0.0,0.0,90,0.00,,,0.00,Wunderground v.1.15,2013-07-18 11:18:00,
2013-07-18 06:23:00,74.1,71.3,30.13,West,277,0.0,0.0,91,0.00,,,0.00,Wunderground v.1.15,2013-07-18 11:23:00,
2013-07-18 06:29:00,74.4,71.3,30.13,West,277,0.0,0.0,90,0.00,,,0.00,Wunderground v.1.15,2013-07-18 11:29:00,
2013-07-18 06:34:00,74.6,71.5,30.13,West,277,0.0,0.0,90,0.00,,,0.00,Wunderground v.1.15,2013-07-18 11:34:00,
2013-07-18 06:40:00,74.8,71.7,30.13,West,277,0.0,0.0,90,0.00,,,0.00,Wunderground v.1.15,2013-07-18 11:40:00,
2013-07-18 06:46:00,75.0,71.9,30.13,West,277,0.0,1.0,90,0.00,,,0.00,Wunderground v.1.15,2013-07-18 11:46:00,
2013-07-18 06:51:00,75.3,71.8,30.13,West,277,1.0,1.0,89,0.00,,,0.00,Wunderground v.1.15,2013-07-18 11:51:00,
2013-07-18 06:57:00,75.7,72.2,30.13,West,277,1.0,2.0,89,0.00,,,0.00,Wunderground v.1.15,2013-07-18 11:57:00,
2013-07-18 07:02:00,76.0,72.2,30.13,West,277,0.0,3.0,88,0.00,,,0.00,Wunderground v.1.15,2013-07-18 12:02:00,
2013-07-18 07:08:00,76.2,72.0,30.13,West,277,1.0,3.0,87,0.00,,,0.00,Wunderground v.1.15,2013-07-18 12:08:00,
2013-07-18 07:13:00,76.5,72.3,30.13,West,277,2.0,4.0,87,0.00,,,0.00,Wunderground v.1.15,2013-07-18 12:13:00,
2013-07-18 07:19:00,76.8,72.3,30.13,West,277,3.0,5.0,86,0.00,,,0.00,Wunderground v.1.15,2013-07-18 12:19:00,
2013-07-18 07:24:00,77.2,72.3,30.13,West,277,3.0,4.0,85,0.00,,,0.00,Wunderground v.1.15,2013-07-18 12:24:00,
2013-07-18 07:30:00,77.8,72.9,30.13,West,277,2.0,2.0,85,0.00,,,0.00,Wunderground v.1.15,2013-07-18 12:30:00,
2013-07-18 07:35:00,78.2,72.6,30.13,West,277,2.0,4.0,83,0.00,,,0.00,Wunderground v.1.15,2013-07-18 12:35:00,
2013-07-18 07:40:00,78.5,72.9,30.13,West,277,3.0,3.0,83,0.00,,,0.00,Wunderground v.1.15,2013-07-18 12:40:00,
2013-07-18 07:46:00,78.9,73.3,30.13,West,277,2.0,4.0,83,0.00,,,0.00,Wunderground v.1.15,2013-07-18 12:46:00,
2013-07-18 07:52:00,79.4,73.4,30.13,West,277,2.0,2.0,82,0.00,,,0.00,Wunderground v.1.15,2013-07-18 12:52:00,
2013-07-18 07:57:00,79.8,73.8,30.13,West,277,2.0,4.0,82,0.00,,,0.00,Wunderground v.1.15,2013-07-18 12:57:00,
2013-07-18 08:03:00,80.2,73.5,30.13,West,277,3.0,4.0,80,0.00,,,0.00,Wunderground v.1.15,2013-07-18 13:03:00,
2013-07-18 08:08:00,80.4,73.3,30.13,West,277,4.0,5.0,79,0.00,,,0.00,Wunderground v.1.15,2013-07-18 13:08:00,
2013-07-18 08:20:00,81.1,74.0,30.13,West,277,5.0,5.0,79,0.00,,,0.00,Wunderground v.1.15,2013-07-18 13:20:00,
2013-07-18 08:34:00,82.3,74.4,30.13,WNW,300,5.0,5.0,77,0.00,,,0.00,Wunderground v.1.15,2013-07-18 13:34:00,
2013-07-18 08:40:00,82.7,74.4,30.13,WNW,290,5.0,5.0,76,0.00,,,0.00,Wunderground v.1.15,2013-07-18 13:40:00,
2013-07-18 08:45:00,83.0,74.6,30.13,WNW,297,5.0,6.0,76,0.00,,,0.00,Wunderground v.1.15,2013-07-18 13:45:00,
2013-07-18 08:51:00,83.4,74.6,30.13,WNW,294,5.0,5.0,75,0.00,,,0.00,Wunderground v.1.15,2013-07-18 13:51:00,
2013-07-18 08:56:00,83.8,75.0,30.13,WNW,294,4.0,5.0,75,0.00,,,0.00,Wunderground v.1.15,2013-07-18 13:56:00,
2013-07-18 09:02:00,84.1,74.9,30.13,NW,309,4.0,5.0,74,0.00,,,0.00,Wunderground v.1.15,2013-07-18 14:02:00,
2013-07-18 09:07:00,84.5,74.9,30.13,WNW,292,5.0,6.0,73,0.00,,,0.00,Wunderground v.1.15,2013-07-18 14:07:00,
2013-07-18 09:13:00,84.6,74.2,30.13,WNW,301,6.0,7.0,71,0.00,,,0.00,Wunderground v.1.15,2013-07-18 14:13:00,
2013-07-18 09:18:00,84.9,74.9,30.13,WNW,298,6.0,9.0,72,0.00,,,0.00,Wunderground v.1.15,2013-07-18 14:18:00,
2013-07-18 09:24:00,85.1,74.6,30.13,NW,309,5.0,7.0,71,0.00,,,0.00,Wunderground v.1.15,2013-07-18 14:24:00,
2013-07-18 09:29:00,85.4,75.8,30.12,NW,311,4.0,7.0,73,0.00,,,0.00,Wunderground v.1.15,2013-07-18 14:29:00,
2013-07-18 09:35:00,86.0,75.1,30.12,WNW,300,4.0,7.0,70,0.00,,,0.00,Wunderground v.1.15,2013-07-18 14:35:00,
2013-07-18 09:40:00,86.3,75.4,30.12,WNW,300,4.0,5.0,70,0.00,,,0.00,Wunderground v.1.15,2013-07-18 14:40:00,
2013-07-18 09:46:00,86.5,75.1,30.12,WNW,301,4.0,8.0,69,0.00,,,0.00,Wunderground v.1.15,2013-07-18 14:46:00,
2013-07-18 09:51:00,86.8,75.0,30.12,WNW,299,6.0,6.0,68,0.00,,,0.00,Wunderground v.1.15,2013-07-18 14:51:00,
2013-07-18 09:57:00,87.3,75.9,30.12,WNW,296,5.0,7.0,69,0.00,,,0.00,Wunderground v.1.15,2013-07-18 14:57:00,
2013-07-18 10:02:00,87.6,75.3,30.12,NW,308,4.0,5.0,67,0.00,,,0.00,Wunderground v.1.15,2013-07-18 15:02:00,
2013-07-18 10:08:00,87.6,75.7,30.12,WNW,302,5.0,5.0,68,0.00,,,0.00,Wunderground v.1.15,2013-07-18 15:08:00,
2013-07-18 10:13:00,87.8,75.0,30.12,West,275,4.0,5.0,66,0.00,,,0.00,Wunderground v.1.15,2013-07-18 15:13:00,
2013-07-18 10:19:00,88.1,74.4,30.12,WNW,284,4.0,6.0,64,0.00,,,0.00,Wunderground v.1.15,2013-07-18 15:19:00,
2013-07-18 10:24:00,88.5,75.2,30.12,WNW,284,4.0,6.0,65,0.00,,,0.00,Wunderground v.1.15,2013-07-18 15:24:00,
2013-07-18 10:30:00,88.7,74.5,30.12,WNW,290,5.0,5.0,63,0.00,,,0.00,Wunderground v.1.15,2013-07-18 15:30:00,
2013-07-18 10:35:00,89.0,74.8,30.12,West,273,5.0,7.0,63,0.00,,,0.00,Wunderground v.1.15,2013-07-18 15:35:00,
2013-07-18 10:41:00,89.1,74.9,30.11,WNW,293,5.0,5.0,63,0.00,,,0.00,Wunderground v.1.15,2013-07-18 15:41:00,
2013-07-18 10:47:00,89.5,75.2,30.11,WNW,289,5.0,8.0,63,0.00,,,0.00,Wunderground v.1.15,2013-07-18 15:47:00,
2013-07-18 10:52:00,89.6,74.4,30.11,WNW,289,4.0,6.0,61,0.00,,,0.00,Wunderground v.1.15,2013-07-18 15:52:00,
2013-07-18 10:57:00,90.1,75.3,30.11,WNW,286,3.0,8.0,62,0.00,,,0.00,Wunderground v.1.15,2013-07-18 15:57:00,
2013-07-18 11:03:00,90.1,74.3,30.11,NW,317,5.0,6.0,60,0.00,,,0.00,Wunderground v.1.15,2013-07-18 16:03:00,
2013-07-18 11:09:00,90.1,73.8,30.11,WNW,290,5.0,7.0,59,0.00,,,0.00,Wunderground v.1.15,2013-07-18 16:09:00,
2013-07-18 11:14:00,90.1,74.8,30.11,WNW,296,3.0,7.0,61,0.00,,,0.00,Wunderground v.1.15,2013-07-18 16:14:00,
2013-07-18 11:20:00,90.3,74.0,30.11,West,271,3.0,7.0,59,0.00,,,0.00,Wunderground v.1.15,2013-07-18 16:20:00,
2013-07-18 11:25:00,90.5,73.7,30.11,WNW,302,4.0,7.0,58,0.00,,,0.00,Wunderground v.1.15,2013-07-18 16:25:00,
2013-07-18 11:31:00,90.5,73.2,30.10,West,269,4.0,6.0,57,0.00,,,0.00,Wunderground v.1.15,2013-07-18 16:31:00,
2013-07-18 11:36:00,90.8,72.9,30.11,West,266,4.0,6.0,56,0.00,,,0.00,Wunderground v.1.15,2013-07-18 16:36:00,
2013-07-18 11:41:00,91.4,73.5,30.10,WNW,296,5.0,7.0,56,0.00,,,0.00,Wunderground v.1.15,2013-07-18 16:41:00,
2013-07-18 11:47:00,91.4,73.0,30.10,WNW,302,4.0,7.0,55,0.00,,,0.00,Wunderground v.1.15,2013-07-18 16:47:00,
2013-07-18 11:58:00,91.7,71.6,30.10,WNW,303,3.0,5.0,52,0.00,,,0.00,Wunderground v.1.15,2013-07-18 16:58:00,
2013-07-18 12:19:00,91.3,71.2,30.10,WNW,282,3.0,3.0,52,0.00,,,0.00,Wunderground v.1.15,2013-07-18 17:19:00,
2013-07-18 12:29:00,91.2,72.2,30.09,WNW,282,2.0,2.0,54,0.00,,,0.00,Wunderground v.1.15,2013-07-18 17:29:00,
2013-07-18 12:35:00,92.0,73.0,30.09,West,270,2.0,4.0,54,0.00,,,0.00,Wunderground v.1.15,2013-07-18 17:35:00,
2013-07-18 12:40:00,92.0,72.4,30.09,SW,219,4.0,8.0,53,0.00,,,0.00,Wunderground v.1.15,2013-07-18 17:40:00,
2013-07-18 12:46:00,92.6,73.0,30.09,WSW,242,5.0,7.0,53,0.00,,,0.00,Wunderground v.1.15,2013-07-18 17:46:00,
2013-07-18 12:51:00,92.4,72.2,30.08,West,264,4.0,7.0,52,0.00,,,0.00,Wunderground v.1.15,2013-07-18 17:51:00,
2013-07-18 12:57:00,92.1,73.1,30.08,WNW,299,4.0,7.0,54,0.00,,,0.00,Wunderground v.1.15,2013-07-18 17:57:00,
2013-07-18 13:02:00,92.2,72.6,30.08,NW,304,5.0,6.0,53,0.00,,,0.00,Wunderground v.1.15,2013-07-18 18:02:00,
2013-07-18 13:08:00,92.1,72.5,30.08,WNW,292,6.0,7.0,53,0.00,,,0.00,Wunderground v.1.15,2013-07-18 18:08:00,
2013-07-18 13:13:00,92.0,73.0,30.08,WNW,296,5.0,6.0,54,0.00,,,0.00,Wunderground v.1.15,2013-07-18 18:13:00,
2013-07-18 13:19:00,91.9,72.9,30.07,West,278,4.0,6.0,54,0.00,,,0.00,Wunderground v.1.15,2013-07-18 18:19:00,
2013-07-18 13:21:00,92.0,73.0,30.07,West,265,4.0,7.0,54,0.00,,,0.00,Wunderground v.1.15,2013-07-18 18:21:00,
2013-07-18 13:27:00,92.5,73.4,30.07,WNW,293,5.0,7.0,54,0.00,,,0.00,Wunderground v.1.15,2013-07-18 18:27:00,
2013-07-18 13:32:00,93.0,73.9,30.07,WNW,282,5.0,7.0,54,0.00,,,0.00,Wunderground v.1.15,2013-07-18 18:32:00,
2013-07-18 13:38:00,93.5,71.5,30.06,West,276,5.0,8.0,49,0.00,,,0.00,Wunderground v.1.15,2013-07-18 18:38:00,
2013-07-18 13:43:00,93.2,70.6,30.06,West,264,6.0,7.0,48,0.00,,,0.00,Wunderground v.1.15,2013-07-18 18:43:00,
2013-07-18 13:49:00,93.2,71.8,30.06,WSW,257,3.0,7.0,50,0.00,,,0.00,Wunderground v.1.15,2013-07-18 18:49:00,
2013-07-18 13:54:00,93.5,72.7,30.06,SW,232,3.0,8.0,51,0.00,,,0.00,Wunderground v.1.15,2013-07-18 18:54:00,
2013-07-18 14:00:00,93.3,73.6,30.05,SSW,201,6.0,6.0,53,0.00,,,0.00,Wunderground v.1.15,2013-07-18 19:00:00,
2013-07-18 14:05:00,93.1,72.3,30.05,SW,230,4.0,6.0,51,0.00,,,0.00,Wunderground v.1.15,2013-07-18 19:05:00,
2013-07-18 14:11:00,93.7,73.4,30.05,SW,226,1.0,6.0,52,0.00,,,0.00,Wunderground v.1.15,2013-07-18 19:11:00,
2013-07-18 14:16:00,93.9,73.0,30.05,WSW,255,3.0,6.0,51,0.00,,,0.00,Wunderground v.1.15,2013-07-18 19:16:00,
2013-07-18 14:22:00,92.8,73.2,30.04,SW,224,5.0,6.0,53,0.00,,,0.00,Wunderground v.1.15,2013-07-18 19:22:00,
2013-07-18 14:27:00,93.1,72.3,30.04,WNW,283,6.0,8.0,51,0.00,,,0.00,Wunderground v.1.15,2013-07-18 19:27:00,
2013-07-18 14:33:00,92.2,71.5,30.04,West,276,6.0,9.0,51,0.00,,,0.00,Wunderground v.1.15,2013-07-18 19:33:00,
2013-07-18 14:38:00,91.9,71.2,30.03,West,276,4.0,9.0,51,0.00,,,0.00,Wunderground v.1.15,2013-07-18 19:38:00,
2013-07-18 14:44:00,92.5,71.7,30.03,SW,221,3.0,8.0,51,0.00,,,0.00,Wunderground v.1.15,2013-07-18 19:44:00,
2013-07-18 14:50:00,92.7,72.5,30.03,West,267,3.0,7.0,52,0.00,,,0.00,Wunderground v.1.15,2013-07-18 19:50:00,
2013-07-18 14:55:00,93.0,71.0,30.03,West,280,5.0,8.0,49,0.00,,,0.00,Wunderground v.1.15,2013-07-18 19:55:00,
2013-07-18 15:01:00,93.5,73.2,30.02,WNW,289,6.0,10.0,52,0.00,,,0.00,Wunderground v.1.15,2013-07-18 20:01:00,
2013-07-18 15:06:00,93.7,71.0,30.02,West,271,6.0,10.0,48,0.00,,,0.00,Wunderground v.1.15,2013-07-18 20:06:00,
2013-07-18 15:12:00,93.7,71.7,30.02,West,277,5.0,6.0,49,0.00,,,0.00,Wunderground v.1.15,2013-07-18 20:12:00,
2013-07-18 15:17:00,92.9,72.1,30.02,West,276,6.0,7.0,51,0.00,,,0.00,Wunderground v.1.15,2013-07-18 20:17:00,
2013-07-18 15:23:00,92.8,72.0,30.01,WNW,286,5.0,6.0,51,0.00,,,0.00,Wunderground v.1.15,2013-07-18 20:23:00,
2013-07-18 15:28:00,93.5,72.1,30.01,SSW,213,4.0,7.0,50,0.00,,,0.00,Wunderground v.1.15,2013-07-18 20:28:00,
2013-07-18 15:34:00,93.8,72.3,30.01,West,265,5.0,9.0,50,0.00,,,0.00,Wunderground v.1.15,2013-07-18 20:34:00,
2013-07-18 15:39:00,93.2,71.2,30.01,West,264,5.0,9.0,49,0.00,,,0.00,Wunderground v.1.15,2013-07-18 20:39:00,
2013-07-18 15:45:00,92.6,72.4,30.01,West,263,4.0,9.0,52,0.00,,,0.00,Wunderground v.1.15,2013-07-18 20:45:00,
2013-07-18 15:50:00,92.9,73.2,30.01,West,261,4.0,8.0,53,0.00,,,0.00,Wunderground v.1.15,2013-07-18 20:50:00,
2013-07-18 15:56:00,93.3,72.5,30.00,WSW,254,6.0,9.0,51,0.00,,,0.00,Wunderground v.1.15,2013-07-18 20:56:00,
2013-07-18 16:02:00,92.6,71.8,30.00,West,278,6.0,6.0,51,0.00,,,0.00,Wunderground v.1.15,2013-07-18 21:02:00,
2013-07-18 16:08:00,92.3,72.1,30.00,WNW,285,5.0,7.0,52,0.00,,,0.00,Wunderground v.1.15,2013-07-18 21:08:00,
2013-07-18 16:14:00,92.8,72.6,30.00,WNW,286,4.0,5.0,52,0.00,,,0.00,Wunderground v.1.15,2013-07-18 21:14:00,
2013-07-18 16:19:00,93.4,72.0,29.99,WSW,252,4.0,9.0,50,0.00,,,0.00,Wunderground v.1.15,2013-07-18 21:19:00,
2013-07-18 16:24:00,93.2,73.5,29.99,West,273,6.0,9.0,53,0.00,,,0.00,Wunderground v.1.15,2013-07-18 21:24:00,
2013-07-18 16:30:00,93.5,72.1,29.99,WSW,242,4.0,4.0,50,0.00,,,0.00,Wunderground v.1.15,2013-07-18 21:30:00,
2013-07-18 16:36:00,93.9,71.8,29.99,WNW,294,2.0,6.0,49,0.00,,,0.00,Wunderground v.1.15,2013-07-18 21:36:00,
2013-07-18 16:41:00,93.7,72.3,29.99,West,259,4.0,9.0,50,0.00,,,0.00,Wunderground v.1.15,2013-07-18 21:41:00,
2013-07-18 16:47:00,93.5,72.7,29.99,West,278,5.0,9.0,51,0.00,,,0.00,Wunderground v.1.15,2013-07-18 21:47:00,
2013-07-18 16:52:00,93.7,72.3,29.99,WNW,290,5.0,6.0,50,0.00,,,0.00,Wunderground v.1.15,2013-07-18 21:52:00,
2013-07-18 16:58:00,93.5,71.5,29.99,WNW,292,6.0,10.0,49,0.00,,,0.00,Wunderground v.1.15,2013-07-18 21:58:00,
2013-07-18 17:04:00,93.7,73.4,29.99,WNW,296,6.0,8.0,52,0.00,,,0.00,Wunderground v.1.15,2013-07-18 22:04:00,
2013-07-18 17:13:00,93.7,71.0,29.98,West,279,3.0,3.0,48,0.00,,,0.00,Wunderground v.1.15,2013-07-18 22:13:00,
2013-07-18 17:19:00,94.0,71.9,29.98,WNW,296,2.0,6.0,49,0.00,,,0.00,Wunderground v.1.15,2013-07-18 22:19:00,
2013-07-18 17:24:00,94.0,73.1,29.98,WNW,290,2.0,7.0,51,0.00,,,0.00,Wunderground v.1.15,2013-07-18 22:24:00,
2013-07-18 17:30:00,94.1,72.6,29.98,WNW,294,3.0,6.0,50,0.00,,,0.00,Wunderground v.1.15,2013-07-18 22:30:00,
2013-07-18 17:35:00,94.1,73.8,29.98,WNW,292,3.0,6.0,52,0.00,,,0.00,Wunderground v.1.15,2013-07-18 22:35:00,
2013-07-18 17:41:00,93.2,71.8,29.98,West,279,5.0,5.0,50,0.00,,,0.00,Wunderground v.1.15,2013-07-18 22:41:00,
2013-07-18 17:46:00,92.7,72.5,29.98,West,269,4.0,5.0,52,0.00,,,0.00,Wunderground v.1.15,2013-07-18 22:46:00,
2013-07-18 17:51:00,92.2,72.0,29.98,West,259,3.0,7.0,52,0.00,,,0.00,Wunderground v.1.15,2013-07-18 22:51:00,
2013-07-18 18:00:00,92.1,73.6,29.98,WSW,251,3.0,3.0,55,0.00,,,0.00,Wunderground v.1.15,2013-07-18 23:00:00,
2013-07-18 18:05:00,92.3,73.8,29.97,WSW,251,2.0,4.0,55,0.00,,,0.00,Wunderground v.1.15,2013-07-18 23:05:00,
2013-07-18 18:11:00,92.3,73.2,29.97,WSW,251,3.0,3.0,54,0.00,,,0.00,Wunderground v.1.15,2013-07-18 23:11:00,
2013-07-18 18:16:00,92.4,73.9,29.97,WSW,251,3.0,4.0,55,0.00,,,0.00,Wunderground v.1.15,2013-07-18 23:16:00,
2013-07-18 18:22:00,92.4,73.3,29.97,WSW,251,3.0,6.0,54,0.00,,,0.00,Wunderground v.1.15,2013-07-18 23:22:00,
2013-07-18 18:27:00,92.3,72.7,29.97,WSW,252,4.0,6.0,53,0.00,,,0.00,Wunderground v.1.15,2013-07-18 23:27:00,
2013-07-18 18:33:00,92.2,74.2,29.97,West,265,3.0,5.0,56,0.00,,,0.00,Wunderground v.1.15,2013-07-18 23:33:00,
2013-07-18 18:44:00,91.8,73.3,29.97,WSW,240,2.0,4.0,55,0.00,,,0.00,Wunderground v.1.15,2013-07-18 23:44:00,
2013-07-18 18:50:00,91.5,75.1,29.96,WSW,240,1.0,1.0,59,0.00,,,0.00,Wunderground v.1.15,2013-07-18 23:50:00,
2013-07-18 18:55:00,90.8,74.5,29.96,WSW,240,1.0,3.0,59,0.00,,,0.00,Wunderground v.1.15,2013-07-18 23:55:00,
2013-07-18 19:01:00,90.0,74.2,29.96,WSW,240,1.0,2.0,60,0.00,,,0.00,Wunderground v.1.15,2013-07-19 00:01:00,
2013-07-18 19:06:00,89.5,74.3,29.96,WSW,240,1.0,4.0,61,0.00,,,0.00,Wunderground v.1.15,2013-07-19 00:06:00,
2013-07-18 19:12:00,89.1,73.4,29.96,WSW,242,3.0,5.0,60,0.00,,,0.00,Wunderground v.1.15,2013-07-19 00:12:00,
2013-07-18 19:17:00,88.8,73.6,29.96,WSW,249,3.0,5.0,61,0.00,,,0.00,Wunderground v.1.15,2013-07-19 00:17:00,
2013-07-18 19:23:00,88.5,73.3,29.96,WSW,249,2.0,2.0,61,0.00,,,0.00,Wunderground v.1.15,2013-07-19 00:23:00,
2013-07-18 19:28:00,88.2,74.0,29.96,WSW,249,1.0,2.0,63,0.00,,,0.00,Wunderground v.1.15,2013-07-19 00:28:00,
2013-07-18 19:41:00,87.7,73.1,29.97,NW,312,4.0,7.0,62,0.00,,,0.00,Wunderground v.1.15,2013-07-19 00:41:00,
2013-07-18 19:47:00,87.3,73.2,29.97,WNW,301,5.0,7.0,63,0.00,,,0.00,Wunderground v.1.15,2013-07-19 00:47:00,
2013-07-18 19:52:00,87.1,73.4,29.97,WNW,291,5.0,5.0,64,0.00,,,0.00,Wunderground v.1.15,2013-07-19 00:52:00,
2013-07-18 19:58:00,87.0,72.9,29.97,WNW,291,4.0,5.0,63,0.00,,,0.00,Wunderground v.1.15,2013-07-19 00:58:00,
2013-07-18 20:03:00,86.9,73.3,29.97,WNW,291,3.0,3.0,64,0.00,,,0.00,Wunderground v.1.15,2013-07-19 01:03:00,
2013-07-18 20:08:00,86.7,73.5,29.97,WNW,290,1.0,3.0,65,0.00,,,0.00,Wunderground v.1.15,2013-07-19 01:08:00,
2013-07-18 20:14:00,86.5,73.8,29.97,WNW,291,1.0,1.0,66,0.00,,,0.00,Wunderground v.1.15,2013-07-19 01:14:00,
2013-07-18 20:19:00,86.3,74.0,29.96,WNW,291,1.0,1.0,67,0.00,,,0.00,Wunderground v.1.15,2013-07-19 01:19:00,
2013-07-18 20:25:00,86.0,74.2,29.97,WNW,291,0.0,0.0,68,0.00,,,0.00,Wunderground v.1.15,2013-07-19 01:25:00,
2013-07-18 20:31:00,85.7,74.4,29.97,WNW,291,0.0,0.0,69,0.00,,,0.00,Wunderground v.1.15,2013-07-19 01:31:00,
2013-07-18 20:37:00,85.4,73.6,29.97,WNW,291,0.0,0.0,68,0.00,,,0.00,Wunderground v.1.15,2013-07-19 01:37:00,
2013-07-18 20:42:00,85.2,74.3,29.97,WNW,291,0.0,0.0,70,0.00,,,0.00,Wunderground v.1.15,2013-07-19 01:42:00,
2013-07-18 20:48:00,84.7,73.8,29.97,WNW,291,0.0,0.0,70,0.00,,,0.00,Wunderground v.1.15,2013-07-19 01:48:00,
2013-07-18 20:53:00,84.3,73.9,29.97,WNW,291,0.0,0.0,71,0.00,,,0.00,Wunderground v.1.15,2013-07-19 01:53:00,
2013-07-18 20:59:00,84.0,73.2,29.97,WNW,291,0.0,1.0,70,0.00,,,0.00,Wunderground v.1.15,2013-07-19 01:59:00,
2013-07-18 21:05:00,83.8,73.4,29.97,WNW,290,0.0,0.0,71,0.00,,,0.00,Wunderground v.1.15,2013-07-19 02:05:00,
2013-07-18 21:11:00,83.4,73.4,29.97,WNW,290,0.0,0.0,72,0.00,,,0.00,Wunderground v.1.15,2013-07-19 02:11:00,
2013-07-18 21:16:00,83.1,73.1,29.97,WNW,291,0.0,0.0,72,0.00,,,0.00,Wunderground v.1.15,2013-07-19 02:16:00,
2013-07-18 21:22:00,82.9,73.4,29.97,WNW,291,0.0,0.0,73,0.00,,,0.00,Wunderground v.1.15,2013-07-19 02:22:00,
2013-07-18 21:28:00,82.6,73.5,29.97,WNW,290,0.0,0.0,74,0.00,,,0.00,Wunderground v.1.15,2013-07-19 02:28:00,
2013-07-18 21:33:00,82.2,73.9,29.97,WNW,291,0.0,0.0,76,0.00,,,0.00,Wunderground v.1.15,2013-07-19 02:33:00,
2013-07-18 21:38:00,81.8,72.7,29.97,WNW,290,0.0,1.0,74,0.00,,,0.00,Wunderground v.1.15,2013-07-19 02:38:00,
2013-07-18 21:45:00,81.9,72.8,29.97,WNW,291,0.0,0.0,74,0.00,,,0.00,Wunderground v.1.15,2013-07-19 02:45:00,
2013-07-18 21:51:00,81.6,72.5,29.97,WNW,291,0.0,0.0,74,0.00,,,0.00,Wunderground v.1.15,2013-07-19 02:51:00,
2013-07-18 21:57:00,81.4,72.7,29.97,WNW,290,0.0,1.0,75,0.00,,,0.00,Wunderground v.1.15,2013-07-19 02:57:00,
2013-07-18 22:02:00,81.1,72.8,29.97,WNW,291,0.0,0.0,76,0.00,,,0.00,Wunderground v.1.15,2013-07-19 03:02:00,
2013-07-18 22:08:00,81.2,72.9,29.97,WNW,291,0.0,3.0,76,0.00,,,0.00,Wunderground v.1.15,2013-07-19 03:08:00,
2013-07-18 22:13:00,81.0,72.7,29.97,WNW,290,1.0,4.0,76,0.00,,,0.00,Wunderground v.1.15,2013-07-19 03:13:00,
2013-07-18 22:19:00,80.7,72.8,29.96,WNW,291,1.0,4.0,77,0.00,,,0.00,Wunderground v.1.15,2013-07-19 03:19:00,
2013-07-18 22:25:00,80.5,73.0,29.96,WNW,291,1.0,1.0,78,0.00,,,0.00,Wunderground v.1.15,2013-07-19 03:25:00,
2013-07-18 22:30:00,80.4,72.9,29.96,WNW,291,0.0,2.0,78,0.00,,,0.00,Wunderground v.1.15,2013-07-19 03:30:00,
2013-07-18 22:36:00,80.4,72.9,29.96,WNW,290,0.0,2.0,78,0.00,,,0.00,Wunderground v.1.15,2013-07-19 03:36:00,
2013-07-18 22:41:00,80.3,72.8,29.96,WNW,291,1.0,2.0,78,0.00,,,0.00,Wunderground v.1.15,2013-07-19 03:41:00,
2013-07-18 22:48:00,80.3,73.2,29.96,WNW,291,2.0,3.0,79,0.00,,,0.00,Wunderground v.1.15,2013-07-19 03:48:00,
2013-07-18 22:54:00,80.0,72.9,29.96,WNW,291,1.0,2.0,79,0.00,,,0.00,Wunderground v.1.15,2013-07-19 03:54:00,
2013-07-18 23:00:00,79.9,72.8,29.96,WNW,291,1.0,1.0,79,0.00,,,0.00,Wunderground v.1.15,2013-07-19 04:00:00,
2013-07-18 23:01:00,79.9,72.8,29.96,WNW,291,1.0,1.0,79,0.00,,,0.00,Wunderground v.1.15,2013-07-19 04:01:00,
2013-07-18 23:02:00,79.9,72.8,29.96,WNW,291,1.0,2.0,79,0.00,,,0.00,Wunderground v.1.15,2013-07-19 04:02:00,
2013-07-18 23:03:00,79.9,72.8,29.96,WNW,291,1.0,4.0,79,0.00,,,0.00,Wunderground v.1.15,2013-07-19 04:03:00,
2013-07-18 23:05:00,79.9,72.8,29.96,WNW,291,1.0,4.0,79,0.00,,,0.00,Wunderground v.1.15,2013-07-19 04:05:00,
2013-07-18 23:10:00,80.0,72.9,29.96,WNW,291,1.0,2.0,79,0.00,,,0.00,Wunderground v.1.15,2013-07-19 04:10:00,
2013-07-18 23:15:00,80.2,72.7,29.96,WNW,290,2.0,5.0,78,0.00,,,0.00,Wunderground v.1.15,2013-07-19 04:15:00,
2013-07-18 23:21:00,80.4,72.5,29.96,WNW,290,2.0,2.0,77,0.00,,,0.00,Wunderground v.1.15,2013-07-19 04:21:00,
2013-07-18 23:27:00,80.7,72.8,29.95,WNW,291,2.0,5.0,77,0.00,,,0.00,Wunderground v.1.15,2013-07-19 04:27:00,
2013-07-18 23:33:00,80.9,72.6,29.95,WNW,291,3.0,5.0,76,0.00,,,0.00,Wunderground v.1.15,2013-07-19 04:33:00,
2013-07-18 23:39:00,81.0,72.7,29.95,WNW,291,3.0,5.0,76,0.00,,,0.00,Wunderground v.1.15,2013-07-19 04:39:00,
2013-07-18 23:44:00,80.9,72.6,29.95,WNW,291,3.0,3.0,76,0.00,,,0.00,Wunderground v.1.15,2013-07-19 04:44:00,
2013-07-18 23:50:00,80.9,73.0,29.95,WNW,291,3.0,3.0,77,0.00,,,0.00,Wunderground v.1.15,2013-07-19 04:50:00,
2013-07-18 23:55:00,80.9,73.0,29.95,WNW,291,3.0,7.0,77,0.00,,,0.00,Wunderground v.1.15,2013-07-19 04:55:00,